Location: Hawks Ness
(60.2333°N, 1.1667°W)
Time: 14:32:25
(UTC+00:00)

Cosmos 1356 - Pass Details

Date: 22 October 2019
Orbit: 447 x 449 km, 81.1° (Epoch: 13 November)

Event Time Altitude Azimuth Distance (km) Brightness Sun altitude
Rises 04:17:44 0° 342° (NNW) 2,470 7.1 -20.7°
Enters shadow 04:17:54 - 342° (NNW) 2,397 7.1 -20.7°
Exits shadow 04:24:30 38° 177° (S) 710 4.2 -19.9°
Drops below altitude 10° 04:26:44 10° 170° (S) 1,581 6.1 -19.7°
Sets 04:28:47 0° 169° (S) 2,449 7.1 -19.4°
